Valparaiso, IN

3:24 PM CDT on April 28, 2017 (GMT -0500)
Porter County Municipal

Weather History for KVPZ - November, 2011

Change the Weather History Date:

Friday, November 25, 2011

  Actual Average Record
Temperature  
Mean Temperature 46 °F 36 °F  
Max Temperature 57 °F 43 °F 59 °F (2006)
Min Temperature 36 °F 29 °F 11 °F (2005)
Degree Days  
Heating Degree Days 18 29  
Month to date heating degree days 576  
Since 1 July heating degree days 1106  
Cooling Degree Days 0 0  
Month to date cooling degree days 0  
Year to date cooling degree days 713  
Moisture  
Dew Point 40 °F    
Average Humidity 80    
Maximum Humidity 100    
Minimum Humidity 62    
Precipitation  
Precipitation 0.00 in 0.10 in 0.21 in (2004)
Month to date precipitation 2.82  
Year to date precipitation 34.82  
Sea Level Pressure  
Sea Level Pressure 30.03 in    
Wind  
Wind Speed 11 mph (SSW)    
Max Wind Speed 22 mph    
Max Gust Speed 30 mph    
Visibility 9 miles    
Events      
T = Trace of Precipitation, MM = Missing Value Source: NWS Daily Summary

Daily Weather History Graph

Daily Weather History Graph

Search for Another Location

Airport or City:

Trip Planner

Search our weather history database for the weather conditions in past years. The results will help you decide how hot, cold, wet, or windy it might be!

Date:

Astronomy

Nov. 25, 2011 Rise Set
Actual Time 6:48 AM CST 4:21 PM CST
Civil Twilight 6:17 AM CST 4:52 PM CST
Nautical Twilight 5:43 AM CST 5:26 PM CST
Astronomical Twilight 5:10 AM CST 5:59 PM CST
Moon 7:16 AM CST (11/25) 4:48 PM CST (11/25)
Length of Visible Light 10h 34m
Length of Day
9h 33m
New Moon, 0% of the Moon is Illuminated
Nov 25
New Moon
Dec 2
First Quarter
Dec 10
Full
Dec 17
Last Quarter
Dec 24
New

Hourly Weather History & Observations

Time (CST) Temp. Windchill Dew Point Humidity Pressure Visibility Wind Dir Wind Speed Gust Speed Precip Events Conditions
12:53 AM 39.0 °F 34.0 °F 37.9 °F 96% 30.12 in 8.0 mi South 6.9 mph - N/A   Scattered Clouds
1:12 AM 39.2 °F 33.0 °F 37.4 °F 93% 30.11 in 7.0 mi South 9.2 mph - N/A   Mostly Cloudy
1:48 AM 37.4 °F 32.1 °F 37.4 °F 100% 30.11 in 6.0 mi South 6.9 mph - N/A   Scattered Clouds
2:53 AM 37.0 °F 31.6 °F 36.0 °F 96% 30.11 in 5.0 mi South 6.9 mph - N/A   Clear
3:53 AM 37.0 °F 30.4 °F 36.0 °F 96% 30.10 in 4.0 mi South 9.2 mph - N/A   Partly Cloudy
4:53 AM 36.0 °F 29.6 °F 36.0 °F 100% 30.09 in 4.0 mi South 8.1 mph - N/A   Clear
5:53 AM 37.9 °F 32.1 °F 37.0 °F 97% 30.09 in 6.0 mi South 8.1 mph - N/A   Clear
6:53 AM 37.9 °F 32.7 °F 36.0 °F 93% 30.08 in 7.0 mi South 6.9 mph - N/A   Clear
7:53 AM 41.0 °F 33.5 °F 37.9 °F 89% 30.06 in 10.0 mi South 13.8 mph - N/A   Clear
8:53 AM 44.1 °F 37.1 °F 41.0 °F 89% 30.08 in 10.0 mi SSW 15.0 mph - N/A   Clear
9:53 AM 48.0 °F - 42.1 °F 80% 30.06 in 10.0 mi SSW 15.0 mph 24.2 mph N/A   Clear
10:53 AM 50.0 °F - 42.1 °F 74% 30.02 in 10.0 mi SSW 21.9 mph 29.9 mph N/A   Clear
11:53 AM 53.1 °F - 43.0 °F 69% 30.00 in 10.0 mi SSW 17.3 mph 26.5 mph N/A   Clear
1:53 PM 57.0 °F - 44.1 °F 62% 29.95 in 10.0 mi SSW 18.4 mph 27.6 mph N/A   Clear
3:53 PM 57.0 °F - 45.0 °F 64% 29.94 in 10.0 mi SSW 11.5 mph - N/A   Clear
4:53 PM 55.9 °F - 44.1 °F 64% 29.94 in 10.0 mi SSW 15.0 mph 20.7 mph N/A   Clear
5:53 PM 55.0 °F - 43.0 °F 64% 29.94 in 10.0 mi SSW 16.1 mph 23.0 mph N/A   Clear
6:53 PM 54.0 °F - 43.0 °F 66% 29.96 in 10.0 mi SSW 16.1 mph 24.2 mph N/A   Clear
7:53 PM 53.1 °F - 43.0 °F 69% 29.96 in 10.0 mi SSW 12.7 mph - N/A   Clear
8:53 PM 53.1 °F - 43.0 °F 69% 29.96 in 10.0 mi SSW 17.3 mph 26.5 mph N/A   Clear
9:53 PM 52.0 °F - 42.1 °F 69% 29.96 in 10.0 mi SSW 17.3 mph 23.0 mph N/A   Clear
10:53 PM 52.0 °F - 42.1 °F 69% 29.97 in 10.0 mi SSW 13.8 mph 21.9 mph N/A   Clear
11:53 PM 52.0 °F - 41.0 °F 66% 29.97 in 10.0 mi SSW 17.3 mph 25.3 mph N/A   Clear